Home   Weather   Montpellier   Past weeks

Flag for France Past Weather in Montpellier, Languedoc-Roussillon, France — Yesterday and Last 2 Weeks

Now
45 °F

Sunny.


Feels Like: 41 °F
Forecast: 42 / 53 °F
Wind: 6 mph from North

Location: Montpellier Airport

Current Time: Dec 8, 2016 at 10:48:49 am

Latest Report: Dec 8, 2016 at 10:00 am


Visibility: 10 mi

Pressure: 30.60 "Hg

Humidity: 76%

Dew Point: 37 °F

Location of MontpellierLocation

Past Weather in Montpellier — Graph

°F

Montpellier Temperature Yesterday

Maximum temperature yesterday: 59 °F (at 2:30 pm)
Minimum temperature yesterday: 39 °F (at 6:30 am)
Average temperature yesterday: 47 °F

High & Low Weather Summary for the Past Weeks

 TemperatureHumidityPressure
High66 °F (Nov 23, 12:00 pm)100% (Nov 24, 2:30 am)30.60 "Hg (Nov 24, 2:30 am)
Low34 °F (Dec 1, 6:00 am)51% (Nov 28, 1:04 pm)29.68 "Hg (Nov 24, 12:00 am)
Average49 °F79%30.13 "Hg
* Reported Nov 23 9:00 am — Dec 8 9:30 am, Montpellier, Weather by CustomWeather, © 2016

Note: Actual official high and low records may vary slightly from our data, if they occured in-between our weather recording intervals... More about our weather records

Advertising

Montpellier Weather History for the Previous 24 Hours

Scroll right to see more
 ConditionsComfort  
Time TempWeatherWind HumidityBarometerVisibility
9:30 am
Thu, Dec 8
41 °FSunny.6 mph81%30.60 "Hg10 mi
9:00 am39 °FSunny.7 mph87%30.60 "Hg10 mi
8:30 am37 °FSunny.6 mph87%30.57 "Hg10 mi
8:00 am39 °FClear.7 mph81%30.57 "Hg10 mi
7:30 am37 °FClear.7 mph87%30.57 "Hg10 mi
7:00 am37 °FClear.7 mph87%30.57 "Hg10 mi
6:30 am39 °FClear.7 mph81%30.57 "Hg10 mi
6:00 am37 °FClear.7 mph87%30.57 "Hg10 mi
5:30 am37 °FClear.8 mph87%30.57 "Hg10 mi
5:00 am39 °FClear.6 mph87%30.57 "Hg10 mi
4:00 am39 °FPassing clouds.5 mph87%30.54 "HgN/A
2:30 am39 °FClear.5 mph87%30.54 "Hg10 mi
2:00 am39 °FClear.3 mph87%30.54 "Hg10 mi
1:30 am39 °FClear.2 mph87%30.54 "Hg10 mi
1:00 am39 °FClear.5 mph87%30.54 "Hg10 mi
12:30 am39 °FClear.5 mph87%30.54 "Hg10 mi
12:00 am41 °FClear.3 mph81%30.54 "Hg10 mi
11:30 pm
Wed, Dec 7
41 °FClear.5 mph87%30.54 "Hg10 mi
11:00 pm41 °FClear.3 mph81%30.54 "Hg10 mi
10:30 pm43 °FClear.3 mph81%30.54 "Hg10 mi
10:00 pm45 °FClear.2 mph76%30.54 "Hg10 mi
9:30 pm45 °FClear.3 mph76%30.54 "Hg10 mi
9:00 pm45 °FClear.2 mph76%30.54 "Hg10 mi
8:30 pm45 °FClear.3 mph76%30.54 "Hg10 mi
8:00 pm48 °FClear.6 mph66%30.54 "Hg10 mi
7:30 pm48 °FPassing clouds.5 mph71%30.51 "HgN/A
7:00 pm48 °FClear.6 mph71%30.51 "Hg10 mi
6:30 pm50 °FClear.3 mph71%30.51 "Hg10 mi
6:00 pm50 °FClear.3 mph71%30.51 "Hg10 mi
5:30 pm54 °FClear.3 mph63%30.48 "Hg10 mi
5:00 pm55 °FSunny.3 mph59%30.48 "Hg10 mi
4:30 pm57 °FSunny.5 mph59%30.48 "Hg10 mi
3:30 pm59 °FSunny.6 mph51%30.48 "Hg10 mi
3:00 pm59 °FSunny.8 mph51%30.45 "Hg10 mi
2:30 pm59 °FSunny.8 mph51%30.48 "Hg10 mi
2:00 pm57 °FSunny.8 mph51%30.45 "Hg10 mi
1:30 pm57 °FSunny.8 mph51%30.45 "Hg10 mi
1:00 pm55 °FSunny.8 mph55%30.48 "Hg10 mi
12:30 pm54 °FSunny.9 mph54%30.48 "Hg10 mi
12:00 pm54 °FSunny.10 mph54%30.48 "Hg10 mi
11:30 am52 °FSunny.10 mph58%30.48 "Hg10 mi
11:00 am50 °FSunny.9 mph62%30.48 "Hg10 mi
10:30 am48 °FSunny.8 mph66%30.48 "Hg10 mi
10:00 am46 °FSunny.8 mph71%30.48 "Hg10 mi
Weather by CustomWeather, © 2016

See weather overviewHow to use our weather pages